FW6178 Weather Reports


Display with metric or nautical units.
time (UTC)temp
F
wind
direction
speed
MPH
gust
MPH
rain 1hr
in
rain 24hr
in
rain mn
in
humidity
%
barometer
mb
20260503054537 46 0 0.0 0.0 0.00 0.00 0.00 83 1015.4
20260503053040 47 0 0.0 0.0 0.00 0.00 0.00 83 1015.3
20260503051543 47 0 0.0 0.0 0.00 0.00 0.00 80 1015.2
20260503050041 49 0 0.0 0.0 0.00 0.00 0.00 80 1015.1
20260503044535 49 0 0.0 0.0 0.00 0.00 0.00 83 1015.1
20260503043035 50 0 0.0 0.0 0.00 0.00 0.00 77 1015.1
20260503041536 51 0 0.0 0.0 0.00 0.00 0.00 75 1015.1
20260503040037 53 0 0.0 0.0 0.00 0.00 0.00 74 1015.1
20260503034535 54 0 0.0 0.0 0.00 0.00 0.00 75 1014.9
20260503033054 56 0 0.0 0.0 0.00 0.00 0.00 66 1014.8
20260503031538 58 0 0.0 0.0 0.00 0.00 0.00 61 1014.4
20260503030036 59 0 0.0 1.0 0.00 0.00 0.00 60 1014.4
20260503024535 60 342 0.0 0.0 0.00 0.00 0.00 59 1014.4
20260503023044 63 342 0.0 0.0 0.00 0.00 0.00 56 1014.3
20260503021534 67 0 0.0 0.0 0.00 0.00 0.00 51 1014.0
20260503020040 69 0 0.0 0.0 0.00 0.00 0.00 44 1014.2
20260503014535 70 342 0.0 1.0 0.00 0.00 0.00 49 1014.1
20260503013035 70 0 0.0 1.0 0.00 0.00 0.00 42 1014.1
20260503011545 71 0 0.0 2.0 0.00 0.00 0.00 39 1014.1
20260503010051 72 47 2.0 5.0 0.00 0.00 0.00 36 1014.1
20260503004539 71 66 3.0 5.0 0.00 0.00 0.00 37 1014.5
20260503003036 70 43 2.0 3.0 0.00 0.00 0.00 39 1014.5
20260503001536 71 34 0.0 1.0 0.00 0.00 0.00 42 1014.4
20260503000042 72 0 0.0 3.0 0.00 0.00 0.00 38 1014.4
20260502234536 72 25 1.0 3.0 0.00 0.00 0.00 36 1014.5
20260502233037 72 358 1.0 6.0 0.00 0.00 0.00 35 1014.8
20260502231544 74 46 3.0 7.0 0.00 0.00 0.00 35 1014.7
20260502230036 73 56 3.0 8.0 0.00 0.00 0.00 36 1015.1
20260502224535 73 80 3.0 7.0 0.00 0.00 0.00 37 1015.0
20260502223035 73 32 4.0 6.0 0.00 0.00 0.00 38 1015.2
20260502221534 72 39 3.0 6.0 0.00 0.00 0.00 39 1015.2
20260502220040 72 52 2.0 5.0 0.00 0.00 0.00 36 1015.5
20260502214540 71 69 1.0 6.0 0.00 0.00 0.00 40 1015.6
20260502213036 73 44 3.0 5.0 0.00 0.00 0.00 35 1015.7
20260502211543 73 46 1.0 3.0 0.00 0.00 0.00 33 1015.9
20260502210035 73 91 3.0 5.0 0.00 0.00 0.00 38 1016.0
20260502204540 72 60 2.0 5.0 0.00 0.00 0.00 39 1016.3
20260502203039 72 49 2.0 4.0 0.00 0.00 0.00 40 1016.4
20260502201536 71 93 1.0 5.0 0.00 0.00 0.00 42 1016.5
20260502200042 70 121 2.0 5.0 0.00 0.00 0.00 42 1016.6
20260502194535 69 84 2.0 5.0 0.00 0.00 0.00 42 1016.9
20260502193040 68 51 2.0 5.0 0.00 0.00 0.00 44 1017.2
20260502191540 67 54 3.0 8.0 0.00 0.00 0.00 41 1017.4
20260502190041 66 77 3.0 7.0 0.00 0.00 0.00 42 1017.6
20260502184538 65 51 3.0 7.0 0.00 0.00 0.00 46 1017.7
20260502183035 65 63 3.0 7.0 0.00 0.00 0.00 47 1018.0
20260502181548 64 51 4.0 8.0 0.00 0.00 0.00 47 1018.3
20260502163036 58 69 3.0 8.0 0.00 0.00 0.00 58 1018.9
20260502161536 57 60 3.0 7.0 0.00 0.00 0.00 59 1019.1
20260502151548 53 0 0.0 0.0 0.00 0.00 0.00 70 1019.4
20260502123045 38 0 0.0 0.0 0.00 0.00 0.00 89 1018.5
20260502121534 38 0 0.0 0.0 0.00 0.00 0.00 89 1018.5
20260502114534 39 0 0.0 0.0 0.00 0.00 0.00 89 1018.5
20260502113045 39 0 0.0 0.0 0.00 0.00 0.00 89 1018.5
20260502111546 39 0 0.0 0.0 0.00 0.00 0.00 88 1018.3
20260502110035 39 0 0.0 0.0 0.00 0.00 0.00 87 1018.2
20260502104542 40 0 0.0 0.0 0.00 0.00 0.00 87 1018.3
20260502103034 41 0 0.0 0.0 0.00 0.00 0.00 87 1018.3
20260502101546 41 0 0.0 0.0 0.00 0.00 0.00 86 1018.1
20260502091534 42 0 0.0 0.0 0.00 0.00 0.00 84 1017.9
20260502070042 44 0 0.0 1.0 0.00 0.00 0.00 79 1017.2
20260502064535 45 316 0.0 1.0 0.00 0.00 0.00 81 1017.2
20260502063054 45 0 0.0 0.0 0.00 0.00 0.00 81 1017.1
20260502061539 46 0 0.0 1.0 0.00 0.00 0.00 77 1016.9